FW2272 Weather Reports


Display with metric or nautical units.
time (UTC)temp
F
wind
direction
speed
MPH
gust
MPH
rain 1hr
in
rain 24hr
in
rain mn
in
humidity
%
barometer
mb
20260503032724 54 173 2.0 0.0 0.00 0.00 0.00 85 1023.7
20260503032224 54 150 3.0 0.0 0.00 0.00 0.00 85 1023.7
20260503031725 55 153 2.0 0.0 0.00 0.00 0.00 84 1023.7
20260503031224 55 168 2.0 0.0 0.00 0.00 0.00 84 1023.7
20260503030723 55 148 2.0 0.0 0.00 0.00 0.00 83 1023.7
20260503030224 55 173 2.0 0.0 0.00 0.00 0.00 83 1023.4
20260503025726 55 174 2.0 0.0 0.00 0.00 0.00 82 1023.4
20260503025223 56 192 2.0 0.0 0.00 0.00 0.00 81 1023.4
20260503024727 56 181 2.0 0.0 0.00 0.00 0.00 81 1023.4
20260503024223 56 176 2.0 0.0 0.00 0.00 0.00 81 1023.0
20260503023726 56 170 2.0 0.0 0.00 0.00 0.00 81 1023.0
20260503023225 56 169 2.0 0.0 0.00 0.00 0.00 80 1023.0
20260503022726 57 164 2.0 0.0 0.00 0.00 0.00 80 1023.0
20260503022225 57 154 2.0 0.0 0.00 0.00 0.00 79 1023.0
20260503021726 57 182 2.0 0.0 0.00 0.00 0.00 78 1022.7
20260503021228 58 176 2.0 0.0 0.00 0.00 0.00 78 1022.7
20260503020726 58 184 2.0 0.0 0.00 0.00 0.00 77 1022.7
20260503020225 58 169 2.0 0.0 0.00 0.00 0.00 76 1022.7
20260503015757 59 169 2.0 0.0 0.00 0.00 0.00 75 1022.4
20260503015226 59 164 2.0 0.0 0.00 0.00 0.00 74 1022.4
20260503014727 60 167 2.0 0.0 0.00 0.00 0.00 73 1022.4
20260503014224 60 161 2.0 0.0 0.00 0.00 0.00 73 1022.4
20260503013725 61 174 2.0 0.0 0.00 0.00 0.00 72 1022.4
20260503013227 62 163 2.0 0.0 0.00 0.00 0.00 71 1022.0
20260503012725 62 165 2.0 0.0 0.00 0.00 0.00 69 1022.0
20260503012226 63 162 2.0 0.0 0.00 0.00 0.00 67 1022.0
20260503011726 64 169 2.0 0.0 0.00 0.00 0.00 66 1022.0
20260503011225 65 164 3.0 0.0 0.00 0.00 0.00 64 1022.0
20260503010726 66 153 2.0 0.0 0.00 0.00 0.00 62 1022.0
20260503010230 67 168 2.0 0.0 0.00 0.00 0.00 59 1021.7
20260503005729 68 173 3.0 0.0 0.00 0.00 0.00 57 1022.0
20260503005229 69 162 2.0 0.0 0.00 0.00 0.00 53 1021.7
20260503004729 70 181 2.0 0.0 0.00 0.00 0.00 49 1022.0
20260503004227 70 231 2.0 0.0 0.00 0.00 0.00 45 1021.7
20260503003729 70 231 4.0 0.0 0.00 0.00 0.00 45 1021.7
20260503003228 71 181 4.0 0.0 0.00 0.00 0.00 45 1021.7
20260503002728 71 233 4.0 0.0 0.00 0.00 0.00 43 1021.7
20260503002228 71 233 3.0 0.0 0.00 0.00 0.00 44 1021.7
20260503001726 71 157 4.0 0.0 0.00 0.00 0.00 44 1022.0
20260503001229 71 234 4.0 0.0 0.00 0.00 0.00 44 1021.7
20260503000729 71 238 3.0 0.0 0.00 0.00 0.00 44 1022.0
20260503000227 71 225 3.0 0.0 0.00 0.00 0.00 44 1021.7
20260502235727 71 120 4.0 0.0 0.00 0.00 0.00 44 1021.7
20260502235229 71 88 6.0 0.0 0.00 0.00 0.00 43 1021.7
20260502234727 71 184 4.0 0.0 0.00 0.00 0.00 43 1021.7
20260502234226 72 212 3.0 0.0 0.00 0.00 0.00 44 1021.7
20260502233727 72 193 4.0 0.0 0.00 0.00 0.00 43 1021.7
20260502233226 72 214 5.0 0.0 0.00 0.00 0.00 43 1021.7
20260502232725 72 125 6.0 0.0 0.00 0.00 0.00 43 1021.7
20260502232227 72 131 7.0 0.0 0.00 0.00 0.00 43 1021.7
20260502231726 72 84 3.0 0.0 0.00 0.00 0.00 45 1021.7
20260502231226 72 289 3.0 0.0 0.00 0.00 0.00 43 1021.7
20260502230726 72 271 7.0 0.0 0.00 0.00 0.00 41 1021.7
20260502230226 72 249 5.0 0.0 0.00 0.00 0.00 42 1021.7
20260502225726 72 166 3.0 0.0 0.00 0.00 0.00 45 1021.7
20260502225228 72 242 5.0 0.0 0.00 0.00 0.00 43 1021.7
20260502224725 72 280 6.0 0.0 0.00 0.00 0.00 41 1021.7
20260502224225 72 186 7.0 0.0 0.00 0.00 0.00 43 1021.7
20260502223725 72 273 5.0 0.0 0.00 0.00 0.00 42 1021.7
20260502223228 72 301 6.0 0.0 0.00 0.00 0.00 41 1021.7
20260502222727 72 321 7.0 0.0 0.00 0.00 0.00 42 1021.7
20260502222226 72 91 7.0 0.0 0.00 0.00 0.00 43 1021.7
20260502221725 72 84 7.0 0.0 0.00 0.00 0.00 42 1021.7
20260502221225 72 288 6.0 0.0 0.00 0.00 0.00 43 1021.7
20260502220725 72 270 5.0 0.0 0.00 0.00 0.00 43 1021.7
20260502220226 73 305 8.0 0.0 0.00 0.00 0.00 42 1021.7
20260502215727 72 281 8.0 0.0 0.00 0.00 0.00 42 1021.7
20260502215226 72 177 3.0 0.0 0.00 0.00 0.00 44 1021.7
20260502214727 72 235 8.0 0.0 0.00 0.00 0.00 43 1022.0
20260502214225 72 287 7.0 0.0 0.00 0.00 0.00 42 1021.7
20260502213724 72 112 8.0 0.0 0.00 0.00 0.00 43 1022.0
20260502213224 72 250 5.0 0.0 0.00 0.00 0.00 44 1022.0
20260502212719 72 168 6.0 0.0 0.00 0.00 0.00 42 1022.0
20260502212213 72 244 7.0 0.0 0.00 0.00 0.00 43 1022.0
20260502211712 72 150 8.0 0.0 0.00 0.00 0.00 43 1022.0
20260502211211 72 286 6.0 0.0 0.00 0.00 0.00 42 1022.4
20260502210714 72 256 8.0 0.0 0.00 0.00 0.00 43 1022.4
20260502210211 72 20 7.0 0.0 0.00 0.00 0.00 42 1022.4
20260502205713 72 297 6.0 0.0 0.00 0.00 0.00 44 1022.4
20260502205213 72 292 7.0 0.0 0.00 0.00 0.00 44 1022.4
20260502204713 72 272 8.0 0.0 0.00 0.00 0.00 45 1022.7
20260502204210 72 65 8.0 0.0 0.00 0.00 0.00 42 1022.7
20260502203711 71 260 7.0 0.0 0.00 0.00 0.00 42 1022.7
20260502203211 71 237 5.0 0.0 0.00 0.00 0.00 45 1022.7
20260502202713 71 262 9.0 0.0 0.00 0.00 0.00 42 1023.0
20260502202214 71 300 11.0 0.0 0.00 0.00 0.00 44 1022.7
20260502201712 71 320 9.0 0.0 0.00 0.00 0.00 44 1023.0
20260502201216 71 295 10.0 0.0 0.00 0.00 0.00 45 1023.0
20260502200712 71 287 8.0 0.0 0.00 0.00 0.00 45 1023.0
20260502200217 71 105 7.0 0.0 0.00 0.00 0.00 47 1023.0
20260502195714 71 47 7.0 0.0 0.00 0.00 0.00 47 1023.0
20260502195211 71 266 9.0 0.0 0.00 0.00 0.00 45 1023.0
20260502194712 71 226 8.0 0.0 0.00 0.00 0.00 48 1023.0
20260502194214 71 253 9.0 0.0 0.00 0.00 0.00 46 1023.0
20260502193714 71 347 9.0 0.0 0.00 0.00 0.00 45 1023.4
20260502193212 71 256 8.0 0.0 0.00 0.00 0.00 46 1023.4
20260502192712 72 264 9.0 0.0 0.00 0.00 0.00 46 1023.0
20260502192211 72 90 9.0 0.0 0.00 0.00 0.00 48 1023.0
20260502191713 72 242 6.0 0.0 0.00 0.00 0.00 49 1023.0
20260502191216 72 118 8.0 0.0 0.00 0.00 0.00 46 1023.4
20260502190713 71 220 6.0 0.0 0.00 0.00 0.00 48 1023.4
20260502190211 71 240 9.0 0.0 0.00 0.00 0.00 48 1023.4
20260502185712 71 281 8.0 0.0 0.00 0.00 0.00 47 1023.4
20260502185214 71 312 9.0 0.0 0.00 0.00 0.00 46 1023.4
20260502184711 71 241 6.0 0.0 0.00 0.00 0.00 50 1023.4
20260502184210 71 298 6.0 0.0 0.00 0.00 0.00 49 1023.4
20260502183714 70 243 9.0 0.0 0.00 0.00 0.00 49 1023.7
20260502183214 71 278 6.0 0.0 0.00 0.00 0.00 51 1023.7
20260502182712 71 72 7.0 0.0 0.00 0.00 0.00 53 1023.7
20260502182210 71 271 8.0 0.0 0.00 0.00 0.00 51 1023.7
20260502181713 70 149 8.0 0.0 0.00 0.00 0.00 51 1023.7
20260502181212 70 260 6.0 0.0 0.00 0.00 0.00 53 1024.0
20260502180713 70 82 8.0 0.0 0.00 0.00 0.00 52 1024.0
20260502180212 70 55 7.0 0.0 0.00 0.00 0.00 51 1024.0
20260502170213 67 298 8.0 0.0 0.00 0.00 0.00 54 1024.7
20260502164214 66 16 11.0 0.0 0.00 0.00 0.00 52 1024.7
20260502163716 66 279 8.0 0.0 0.00 0.00 0.00 53 1024.7
20260502163212 66 274 9.0 0.0 0.00 0.00 0.00 54 1024.7
20260502162712 65 310 10.0 0.0 0.00 0.00 0.00 52 1025.1
20260502162215 65 260 10.0 0.0 0.00 0.00 0.00 53 1024.7
20260502161713 65 113 8.0 0.0 0.00 0.00 0.00 53 1024.7
20260502161212 65 307 7.0 0.0 0.00 0.00 0.00 54 1024.7
20260502160713 64 326 9.0 0.0 0.00 0.00 0.00 55 1024.7
20260502160212 64 358 7.0 0.0 0.00 0.00 0.00 57 1024.7
20260502152214 62 230 7.0 0.0 0.00 0.00 0.00 63 1024.4
20260502151712 62 263 7.0 0.0 0.00 0.00 0.00 65 1024.4
20260502151212 61 313 7.0 0.0 0.00 0.00 0.00 68 1024.4
20260502150712 61 175 7.0 0.0 0.00 0.00 0.00 67 1024.4
20260502150229 61 290 7.0 0.0 0.00 0.00 0.00 68 1024.0
20260502130725 53 290 6.0 0.0 0.00 0.00 0.00 86 1023.4
20260502130225 52 318 6.0 0.0 0.00 0.00 0.00 87 1023.4
20260502123724 50 292 5.0 0.0 0.00 0.00 0.00 90 1022.7
20260502123223 50 252 4.0 0.0 0.00 0.00 0.00 90 1022.7
20260502122725 50 235 3.0 0.0 0.00 0.00 0.00 91 1022.4
20260502122223 50 335 3.0 0.0 0.00 0.00 0.00 91 1022.4
20260502121723 49 238 3.0 0.0 0.00 0.00 0.00 91 1022.4
20260502121225 49 255 4.0 0.0 0.00 0.00 0.00 91 1022.4
20260502120723 49 278 3.0 0.0 0.00 0.00 0.00 91 1022.4
20260502120223 49 279 3.0 0.0 0.00 0.00 0.00 91 1022.0
20260502115725 49 222 2.0 0.0 0.00 0.00 0.00 91 1022.0
20260502115225 49 252 3.0 0.0 0.00 0.00 0.00 90 1022.0
20260502114724 49 272 3.0 0.0 0.00 0.00 0.00 90 1022.0
20260502114223 49 283 4.0 0.0 0.00 0.00 0.00 90 1022.0
20260502113724 50 276 4.0 0.0 0.00 0.00 0.00 90 1022.0
20260502113223 50 275 4.0 0.0 0.00 0.00 0.00 90 1022.0
20260502112722 49 225 3.0 0.0 0.00 0.00 0.00 90 1022.0
20260502112222 50 244 3.0 0.0 0.00 0.00 0.00 90 1022.0
20260502111727 50 268 3.0 0.0 0.00 0.00 0.00 90 1021.7
20260502111223 50 272 4.0 0.0 0.00 0.00 0.00 90 1021.7
20260502110724 50 235 3.0 0.0 0.00 0.00 0.00 90 1021.7
20260502110222 50 252 2.0 0.0 0.00 0.00 0.00 90 1021.7
20260502105723 50 265 3.0 0.0 0.00 0.00 0.00 90 1021.7
20260502105221 50 244 4.0 0.0 0.00 0.00 0.00 90 1021.7
20260502104723 50 275 5.0 0.0 0.00 0.00 0.00 90 1021.7
20260502104223 50 310 5.0 0.0 0.00 0.00 0.00 90 1021.7
20260502103721 50 248 3.0 0.0 0.00 0.00 0.00 90 1021.7
20260502103222 50 247 4.0 0.0 0.00 0.00 0.00 90 1021.7
20260502102723 50 238 4.0 0.0 0.00 0.00 0.00 90 1021.3
20260502102224 50 282 4.0 0.0 0.00 0.00 0.00 89 1021.3
20260502101721 50 258 3.0 0.0 0.00 0.00 0.00 89 1021.7
20260502101222 51 313 6.0 0.0 0.00 0.00 0.00 89 1021.3
20260502100720 51 254 7.0 0.0 0.00 0.00 0.00 89 1021.3
20260502100226 50 281 5.0 0.0 0.00 0.00 0.00 90 1021.0
20260502091220 50 238 1.0 0.0 0.00 0.00 0.00 91 1020.7
20260502090719 50 204 1.0 0.0 0.00 0.00 0.00 91 1020.7
20260502090223 50 255 3.0 0.0 0.00 0.00 0.00 91 1020.7
20260502071218 52 313 5.0 0.0 0.00 0.00 0.00 89 1019.6
20260502070717 52 262 4.0 0.0 0.00 0.00 0.00 89 1020.0
20260502070218 52 268 5.0 0.0 0.00 0.00 0.00 89 1020.0
20260502065719 52 266 5.0 0.0 0.00 0.00 0.00 89 1020.0
20260502065216 52 345 6.0 0.0 0.00 0.00 0.00 89 1020.0
20260502064716 52 272 6.0 0.0 0.00 0.00 0.00 89 1020.0
20260502064215 52 243 6.0 0.0 0.00 0.00 0.00 89 1020.0
20260502063716 52 314 6.0 0.0 0.00 0.00 0.00 89 1020.0
20260502063217 52 297 8.0 0.0 0.00 0.00 0.00 89 1020.0
20260502062715 52 279 9.0 0.0 0.00 0.00 0.00 89 1020.0
20260502062215 52 249 4.0 0.0 0.00 0.00 0.00 89 1020.0
20260502061716 52 297 6.0 0.0 0.00 0.00 0.00 89 1019.6
20260502061221 52 280 4.0 0.0 0.00 0.00 0.00 89 1019.6
20260502060715 52 252 6.0 0.0 0.00 0.00 0.00 88 1020.0
20260502060218 52 263 6.0 0.0 0.00 0.00 0.00 88 1020.0
20260502055717 52 275 6.0 0.0 0.00 0.00 0.00 88 1020.0
20260502055215 52 311 6.0 0.0 0.00 0.00 0.00 89 1020.0
20260502054715 52 254 5.0 0.0 0.00 0.00 0.00 89 1020.0
20260502054214 52 259 7.0 0.0 0.00 0.00 0.00 89 1020.0
20260502053713 52 292 4.0 0.0 0.00 0.00 0.00 89 1020.0
20260502053519 53 297 4.0 0.0 0.00 0.00 0.00 89 1020.0
20260502053016 53 239 3.0 0.0 0.00 0.00 0.00 89 1020.0
20260502052215 53 239 4.0 0.0 0.00 0.00 0.00 89 1019.6
20260502051718 53 319 6.0 0.0 0.00 0.00 0.00 89 1019.3
20260502051218 53 278 6.0 0.0 0.00 0.00 0.00 88 1019.6
20260502050716 53 296 6.0 0.0 0.00 0.00 0.00 88 1019.6
20260502050214 53 287 6.0 0.0 0.00 0.00 0.00 88 1020.0
20260502045716 53 282 6.0 0.0 0.00 0.00 0.29 88 1020.0
20260502045213 53 247 6.0 0.0 0.00 0.00 0.29 88 1020.0
20260502044714 53 297 6.0 0.0 0.00 0.00 0.29 88 1020.0
20260502044213 53 276 6.0 0.0 0.00 0.00 0.29 88 1020.0
20260502043714 53 289 5.0 0.0 0.00 0.00 0.29 88 1020.0
20260502043215 53 284 4.0 0.0 0.00 0.00 0.29 88 1020.0
20260502042714 53 276 6.0 0.0 0.00 0.00 0.29 87 1020.0
20260502042213 53 274 8.0 0.0 0.00 0.00 0.29 87 1019.6
20260502041713 54 262 8.0 0.0 0.00 0.00 0.29 87 1019.6
20260502041214 54 290 7.0 0.0 0.00 0.00 0.29 87 1019.6
20260502040715 54 289 6.0 0.0 0.00 0.00 0.29 86 1019.6
20260502040213 54 275 8.0 0.0 0.00 0.00 0.29 86 1019.6
20260502035714 54 319 8.0 0.0 0.00 0.00 0.29 87 1019.6
20260502035213 54 300 10.0 0.0 0.00 0.00 0.29 87 1019.6
20260502034713 54 278 7.0 0.0 0.00 0.00 0.29 88 1019.6
20260502034213 54 285 7.0 0.0 0.00 0.00 0.29 88 1019.6
20260502033716 54 288 8.0 0.0 0.00 0.00 0.29 88 1019.6
20260502033212 54 2 8.0 0.0 0.00 0.00 0.29 88 1019.3